GFSNGP_prec_radar_060.txt.gz
Reflectivity
-20 -20 -19 3 -9 -5 -20 -20 -20 -20 -20 -20 -20 -20 -20 -20 -20 -20 -20 -20 -20 -20 -20 -20 -20 -20 -20 -20 -20 23 29 3 -3 -12 -20 -20 -18 28 -20 -20 -5 12 6 13
-20 -20 -20 -20 -20 -20 -20 -17 -20 -20 -20 -20 -20 -20 -20 -20 -20 -20 -20 -20 -20 -20 -20 -20 -20 -20 -20 -20 -20 -20 -20 -17 12 -6 -20 -20 -20 -20 9 16 4 -20 -18 6
-20 -20 -1 9 -19 -20 -20 -12 -20 -20 -20 -10 -16 -20 -20 -20 -20 -20 -16 -20 -20 -20 -20 -20 -20 -20 -20 -20 -20 -20 -18 -20 -20 -20 -20 -14 3 16 -2 -19 -20 13 12 11
20 -20 16 3 -9 -20 -20 -20 -20 -20 -20 -20 -20 -20 -20 -20 -20 -20 -20 -20 -20 -20 -20 -20 -20 -20 -20 -20 -20 -20 3 -20 6 8 6 -7 -15 -20 26 24 9 14 -4 -7
22 13 -16 -20 -20 -20 -20 -20 -13 -20 -20 -20 -20 -16 -20 -20 -20 -20 -20 -20 -20 -20 -20 -20 -20 -20 -20 -20 -20 -20 -20 -20 -20 -20 -20 -7 14 24 -20 -20 -18 -20 -20 -20
22 21 24 -20 -20 -20 -20 -20 -17 13 9 6 -19 -20 -20 -20 -20 -20 -20 -20 -20 -20 -20 -20 -20 -20 -20 -20 -20 13 8 -18 19 21 -20 16 -20 -20 -20 -20 -20 -20 -20 -20
16 17 18 -20 -20 -20 -20 -19 -12 7 15 9 -6 -20 -20 -20 -20 -20 -20 -20 -20 -20 -20 -20 -20 -20 -20 -10 -15 -20 -8 -10 -20 -20 -20 -20 -20 -20 -20 -20 -20 -20 -20 -20
-2 6 31 3 -20 5 -16 -20 -2 -19 -20 -20 -20 -20 -15 -20 -20 -20 -20 -20 -20 -20 -20 -20 -20 -20 -20 -7 -14 2 -3 -20 -20 -20 -20 -20 -20 -20 -20 -20 -20 -20 -20 -20
5 12 28 24 6 -12 -20 -20 -20 -20 -20 -20 -20 -20 -20 -20 -20 -12 -20 -20 -20 -20 -20 -20 -20 -20 -20 -20 -20 -20 -20 -20 -20 -20 -20 -20 -20 -20 -20 -20 -20 -20 -20 -20
6 18 20 15 13 24 11 9 -1 -19 -20 -20 -20 -20 -9 -20 -20 -20 -20 -20 -20 -20 -20 -20 -20 -20 -20 -20 -20 -20 -20 -20 -20 -20 -20 -20 -20 -20 -20 -20 -20 -20 -20 -20
-2 14 9 -12 -20 -20 -12 -18 -15 -17 -20 -6 -20 -20 -20 -20 -15 -20 -20 -20 -19 -20 -20 -20 -20 -20 -20 -20 -20 -20 -20 -20 -20 -20 -20 -20 -20 -20 -20 -20 -20 -20 -20 -20
-16 -2 -1 -20 -20 -20 -19 -20 1 24 3 14 -5 -20 -20 -20 -7 -4 -2 -2 -20 -20 -20 -20 -20 -20 -20 -20 -20 -20 -20 -20 -20 -20 -20 -20 -20 -20 -20 -20 -18 -19 -19 4
-17 -3 -12 -20 -20 -11 -13 -12 -3 -4 -20 20 18 -0 4 18 5 -20 -20 -20 -20 -20 -20 -20 -5 -20 -20 -20 -20 -20 -20 -20 -20 -11 -20 -20 -20 -17 -15 -17 -19 4 4 4
23 17 16 -20 -20 -20 -20 -20 -20 -20 1 9 14 -10 15 4 -20 -20 -20 -17 -7 -20 -20 3 3 -5 -16 -20 -20 -20 -19 14 0 -8 -14 -9 2 10 12 7 13 21 18 13
-1 -20 -20 -20 -20 -20 -20 -20 -20 -20 -20 -20 9 10 -19 -16 -20 -20 -20 -20 -20 -20 -9 19 7 7 -1 2 -11 -5 26 17 17 19 21 19 18 22 23 22 16 14 13 7
2 -20 -20 -20 -20 -20 -20 -20 -20 -20 -20 -20 -19 5 9 4 -7 -19 -20 -19 -20 -19 1 -2 6 21 26 26 24 21 19 15 11 9 12 15 16 15 13 10 6 -8 -12 -18
-20 -20 -20 -20 -20 -20 -20 -20 -20 -20 -20 -20 -20 -20 -20 -20 -16 -13 -19 5 12 15 23 11 15 18 19 20 18 15 13 12 9 7 9 12 14 13 10 10 8 2 0 -17
-20 -20 -15 -12 -8 -4 -4 -2 -20 -20 -20 -17 -17 -19 -18 -0 13 16 7 2 14 17 21 22 21 19 14 10 8 6 -3 3 9 11 12 11 10 10 10 7 -7 -16 -20 -20
-20 -20 -20 -4 17 -11 -16 -20 -20 -20 -20 -19 -20 -20 -20 -17 -9 11 18 19 21 21 21 18 14 10 7 6 -0 -19 -20 -13 -3 5 8 6 1 -9 -19 -20 -16 -9 -7 -3
-18 -18 -16 3 15 16 13 10 -1 -4 3 1 5 10 12 16 15 14 14 11 11 12 10 9 9 11 11 10 6 3 -6 -6 -11 -18 -20 -20 -20 -20 -20 -20 -20 -19 -19 -20
-13 -0 9 11 15 14 11 14 14 15 19 18 16 16 17 16 15 15 14 13 15 12 13 13 10 3 -10 -6 -20 -20 -20 -20 -20 -20 -20 -20 -20 -20 -20 -20 -20 -20 -20 -20
5 9 12 13 11 10 10 7 3 9 11 12 12 12 11 11 10 7 9 1 5 -2 -2 -2 -7 -13 -16 -20 -20 -20 -20 -20 -20 -20 -20 -20 -20 -20 -20 -20 -20 -20 -20 -20
6 8 7 4 5 10 9 9 8 6 5 5 5 6 4 4 5 -0 -11 -1 -18 -16 -19 -20 -20 -20 -20 -20 -20 -20 -20 -20 -20 -20 -20 -20 -20 -20 -20 -20 -20 -20 -20 -20
13 13 12 12 11 10 7 5 -2 -6 -7 -7 -9 -16 -20 -20 -20 -20 -20 -20 -20 -20 -20 -20 -20 -20 -20 -20 -20 -20 -20 -20 -20 -20 -20 -20 -20 -20 -20 -20 -20 -20 -20 -20
-5 -6 -15 -14 -20 -20 -9 -18 -20 -20 -20 -20 -20 -20 -20 -20 -20 -20 -20 -20 -20 -20 -20 -20 -20 -20 -20 -20 -20 -20 -20 -20 -20 -20 -20 -20 -20 -20 -20 -20 -20 -20 -20 -20
-18 -17 -16 -18 -18 -20 -20 -20 -20 -10 -20 -20 -20 -20 -20 -20 -20 -20 -20 -20 -20 -20 -20 -20 -20 -20 -20 -20 -20 -20 -20 -20 -20 -20 -20 -20 -20 -20 -20 -20 -20 -20 -20 -20
-20 -20 -20 -20 -20 -20 -20 -20 -20 -20 -20 -20 -20 -20 -20 -20 -20 -20 -20 -20 -20 -20 -20 -20 -20 -20 -20 -20 -20 -20 -20 -20 -20 -20 -20 -20 -20 -20 -20 -20 -20 -20 -20 -20

GFSNGP_prec_radar_066.txt.gz
Reflectivity
-1 -20 -20 -20 -20 -20 -20 -20 -20 -20 -20 -20 -20 -20 -20 -20 -20 -20 -20 -20 -20 -20 -20 -20 -20 -20 -20 -20 -20 -20 -20 -20 -20 -20 -20 -20 -20 -20 -20 -20 -8 -16 -20 -20
-20 1 -20 -20 -20 -20 -20 -20 -20 -20 -20 -20 -20 -20 -20 -20 -20 -20 -20 -20 -20 -20 -20 -20 -20 -20 -20 -20 -20 -20 -20 -20 -20 -20 -20 -20 -20 20 -11 -20 -19 -19 -20 28
-20 -8 -9 -20 -20 -20 -20 -20 -20 -20 -20 -20 -20 -20 -20 -20 -20 -20 -20 -20 -20 -20 -20 -20 -20 -20 -20 -20 -20 -20 -20 -20 -20 -20 -20 -20 -5 -0 -18 18 27 -16 18 7
-20 -20 -20 -20 -20 -20 -20 -20 -20 -20 -20 -20 -20 -20 -20 -20 -20 -20 -20 -20 -20 -20 -20 -20 -20 -20 -20 -20 -20 -20 -20 -20 -20 -20 -20 -20 -20 -20 -20 -4 24 24 27 18
3 -20 -20 -20 -17 -7 -7 -20 -3 -20 -20 -20 -20 -20 -20 -20 -20 -20 -20 -20 -20 -20 -20 -20 -20 -20 -20 -20 -20 -20 -20 -20 -20 -20 -20 -20 -20 -20 -20 13 16 25 15 13
-20 12 -20 -20 -20 7 1 -11 -20 -12 -20 -20 -20 -20 -20 -20 6 2 -20 -20 -20 -20 -20 -20 -20 -20 -20 -20 -20 -20 -20 -20 -20 -20 -20 -20 -18 -4 21 22 18 2 -1 5
8 -6 -19 -20 -20 -12 14 -3 -20 -20 -20 -20 -20 -20 -20 -20 -20 -20 -20 -20 -20 -20 -20 -20 -20 -17 -18 -20 -20 -20 -20 -20 -20 -20 -3 2 8 9 5 5 2 -5 8 14
1 1 -17 -20 -18 -20 -20 -16 -20 -20 -20 -20 -20 -20 -20 -20 -20 -20 4 -3 -5 -20 -20 -20 -20 -20 -20 -20 -20 -19 4 4 14 0 3 -4 -11 3 -3 7 6 13 19 23
3 -20 -20 -20 -20 -20 -20 -20 -20 -20 -20 -20 -20 -20 -20 -20 -20 -20 -16 -18 -17 7 -14 -20 -20 -20 -20 -20 -9 -20 -13 -13 -14 -20 -19 1 20 20 23 28 19 22 25 20
-16 -20 -20 -20 -20 -20 -20 -17 -17 -20 -18 14 -14 -20 -20 -20 -20 -20 -20 7 -20 -20 -20 -20 -20 -20 -20 -20 7 24 -11 -20 -8 -17 2 15 15 11 7 20 23 15 -19 -20
-20 -20 -20 -20 -20 -20 -20 -20 -20 -11 -19 18 30 -16 -20 -20 -20 -20 -20 -20 -19 -20 -20 -14 -20 -20 21 4 -20 -15 -20 -20 -20 -16 -1 -11 -4 18 18 11 -18 -20 -20 -20
-20 -20 -20 -20 -20 -20 -20 -20 -20 -20 -20 12 17 -2 7 2 6 18 -2 -17 14 -16 -20 -20 -20 -20 -10 -13 -20 -20 -20 -20 -20 -20 -20 -11 -18 -13 1 -11 -20 -20 -20 -8
-20 -13 -20 -20 -20 -20 -20 -20 -16 -14 -20 -10 20 27 14 8 14 -14 9 7 -12 8 6 4 2 -0 33 18 -14 -18 -20 -20 -20 -20 -0 16 14 10 5 15 20 22 22 19
-20 -18 -20 -20 -20 -20 3 -19 10 13 4 -7 14 11 -19 -7 -20 -20 -20 18 30 18 22 -9 -15 -4 14 -2 12 -7 -19 7 24 21 17 13 6 14 18 19 19 17 16 12
-20 16 12 -20 -20 -20 -20 -20 19 4 -3 -20 -20 -20 -20 -20 -20 -20 -20 -20 -4 26 31 35 19 17 19 15 4 -16 -1 22 20 15 16 19 18 18 16 14 15 15 13 12
18 18 21 8 -20 22 16 -6 -14 16 2 -9 -20 -20 -20 -20 -20 -20 -20 -20 -20 -18 -10 8 14 11 15 3 14 24 28 22 20 20 16 14 9 -0 2 9 12 10 7 2
1 18 7 9 -4 13 21 32 26 -11 -18 -8 -20 -20 -20 -20 -20 -20 -18 -17 -19 -0 4 -2 11 20 24 24 22 22 21 21 14 11 11 12 12 6 3 5 7 3 -12 -8
14 -1 -15 -3 11 11 1 8 0 -20 -20 -20 -20 -20 -20 -20 -15 4 10 5 0 8 10 13 16 22 25 24 23 20 12 10 6 1 3 2 -2 -11 -19 -19 -18 -19 -20 -20
-17 -7 -9 -3 13 14 8 7 10 8 -6 -17 -18 -19 -20 -17 -15 -3 2 7 12 13 17 13 6 2 8 10 8 -2 -5 -9 -15 -18 -20 -20 -20 -20 -20 -20 -20 -20 -20 -20
-11 -16 -19 -2 5 -7 -13 -5 -8 -9 7 -5 -8 -6 -10 8 11 9 10 4 11 15 14 12 7 -4 -5 -4 -4 -4 -4 -2 -1 -5 -8 -19 -20 -20 -20 -20 -20 -20 -20 -20
-16 -17 -1 -6 -4 -15 -18 -14 -16 -10 2 4 -3 -3 -9 -2 -1 -2 -5 2 13 13 12 9 1 -12 -9 -5 -1 -3 -16 -20 -20 -20 -20 -20 -20 -20 -20 -20 -20 -20 -20 -20
-11 -16 -14 -7 -13 1 6 9 10 9 11 13 13 10 4 6 5 2 -1 -9 -5 -2 -0 1 -8 -20 -20 -20 -20 -20 -20 -20 -20 -20 -20 -20 -20 -20 -20 -20 -20 -20 -20 -20
-4 -4 6 8 2 3 1 -3 -1 -8 -9 -2 4 6 3 2 4 -0 -4 -10 -10 -9 -20 -20 -20 -20 -20 -20 -20 -20 -20 -20 -20 -20 -20 -20 -20 -20 -20 -20 -20 -20 -20 -20
6 13 14 14 13 12 5 -2 2 6 6 3 -6 -14 -19 -20 -20 -20 -20 -20 -20 -20 -20 -20 -20 -20 -20 -20 -20 -20 -20 -20 -20 -20 -20 -20 -20 -20 -20 -20 -20 -20 -20 -20
8 8 3 -11 -17 -20 -20 -20 -20 -20 -20 -20 -20 -20 -20 -20 -20 -20 -20 -20 -20 -20 -20 -20 -20 -20 -20 -20 -20 -20 -20 -20 -20 -20 -20 -20 -20 -20 -20 -20 -20 -20 -20 -20
4 -2 -19 -20 -20 -20 -20 -20 -20 -20 -20 -20 -20 -20 -20 -20 -20 -20 -20 -20 -20 -20 -20 -20 -20 -20 -20 -20 -20 -20 -20 -20 -20 -20 -20 -20 -20 -20 -20 -20 -20 -20 -20 -20
-19 -20 -20 -20 -20 -20 -20 -20 -20 -20 -20 -20 -20 -20 -20 -20 -20 -20 -20 -20 -20 -20 -20 -20 -20 -20 -20 -20 -20 -20 -20 -20 -20 -20 -20 -20 -20 -20 -20 -20 -20 -20 -20 -20

GFSNGP_prec_radar_072.txt.gz
Reflectivity
-20 -20 -20 -20 -20 -20 -20 -20 -19 -20 -20 -20 -20 -20 -20 -20 -19 5 8 -20 -20 -20 -20 -20 -20 -20 -20 -20 -20 -20 -20 -20 -20 -20 -20 -20 -20 -20 -20 -20 -20 -20 -20 -20
-20 -17 -20 -20 -20 -20 -20 -20 -20 -20 -20 -20 -20 -20 -20 -20 -20 -20 -4 3 -20 -20 -20 -20 -20 -20 -20 -20 -20 -20 -20 -20 -20 -20 -20 -20 -20 -20 -20 -20 -20 -20 -20 -20
-20 -20 -20 -20 -20 -20 -20 -20 -20 -20 -20 -20 -20 -20 -20 -20 -20 -20 -20 -20 -1 -13 -20 -20 -20 -20 -20 -20 -20 -20 -20 -20 -20 -20 -20 -20 -20 -20 -20 -20 -20 -20 -20 -20
4 -18 -20 -20 -20 -20 -20 -20 -17 -20 -20 -20 -20 -20 -20 -20 -20 -20 -20 -20 -20 -18 -17 -18 -20 -20 -20 -20 -20 -20 -20 -20 -20 -20 -20 -20 -20 -20 -20 -20 -20 -20 -9 1
-16 -20 -20 -20 -20 -20 -20 -20 -20 -20 -20 -20 -20 -20 -20 -20 -20 -20 -20 -20 -20 -20 -20 -18 -13 -2 -20 -20 -20 -20 -20 -20 -20 -20 -20 -20 -20 -20 -20 -20 -20 -20 -15 -17
10 -12 -20 -20 -20 -20 -20 -20 -20 -20 -20 -20 -20 -20 -20 -20 -20 -20 -20 -20 -20 -20 -20 -20 -20 -20 -14 -19 -20 -20 -16 13 5 -19 -20 -20 -20 -20 -20 -20 -20 -20 -5 8
2 7 -6 -20 -20 -20 -14 -18 -20 -20 -20 -20 -20 -20 -20 -20 -20 -20 -20 -20 -20 -20 -20 -20 -18 -14 -20 -4 -9 -20 -20 -20 -20 -20 -20 -20 -20 -20 -20 -20 -19 6 22 8
9 6 8 -20 -20 -10 -4 -20 -20 -20 -20 -20 -20 -20 -20 -20 -20 -20 -20 -20 -20 -20 -20 -19 -15 -20 -20 -20 -20 -20 -20 -11 -20 -20 -20 -20 -20 -20 11 10 9 -10 -1 9
-17 -3 -20 -20 -20 -20 -20 -20 -20 -20 -20 -20 -20 -20 -20 -20 -20 -20 -20 -20 -20 -20 -20 -20 -20 -20 -20 -20 -20 -20 -20 -20 1 -20 -16 15 2 21 16 23 -5 8 10 1
-20 -20 -20 -20 -20 -20 -20 -20 -20 -20 -20 -20 -20 -20 -20 -20 -20 -20 -20 -20 -20 -20 -20 -20 16 -7 -16 -19 -20 -5 -20 -12 3 16 9 15 23 3 -20 -20 2 -15 -19 -17
-20 -20 -20 -20 -20 -20 -20 -20 -20 -20 -20 -20 -20 -20 -20 -20 -20 -20 -20 -20 -20 -20 -20 2 15 17 17 15 16 16 0 7 7 5 -0 7 -15 0 0 17 19 9 6 14
-20 -20 -20 -20 -20 -20 -20 -20 -20 -20 -20 -20 -20 -20 -20 -20 -20 -20 -10 12 24 18 26 22 -6 15 17 15 19 23 9 -15 8 -13 -17 -18 -11 1 18 14 14 11 14 11
-20 -20 -20 -5 -3 -20 -20 -20 -20 -20 -20 -20 -20 -20 -20 -20 -20 -20 2 27 -3 -11 22 34 16 11 13 24 19 25 19 -19 -7 12 -20 -12 -11 1 12 11 15 16 15 13
-20 -20 -17 -20 -2 -20 -16 -20 -20 -20 -20 -20 -20 -20 -9 -20 -17 17 33 20 -1 -19 -9 -17 7 23 32 36 37 37 29 29 17 9 19 28 34 30 32 28 23 23 20 8
-20 -20 -20 1 -20 -20 -20 -20 -20 -20 -20 -20 -20 -20 -17 -16 19 32 23 -8 -9 -1 13 15 -12 -0 -12 18 26 31 31 28 28 27 24 24 23 22 23 22 21 20 18 13
-20 -20 -20 -19 -20 -20 -19 -19 -18 -16 -15 -20 -12 12 23 14 0 9 6 12 9 8 4 14 18 10 10 10 -2 -1 13 25 28 29 28 20 23 24 24 22 17 14 11 10
-20 -20 -20 -20 -19 -20 -11 -2 -13 -19 -17 9 17 18 23 24 16 10 17 18 9 -13 -4 -12 6 12 15 12 13 14 9 15 17 17 21 24 23 20 20 19 17 17 11 -3
-20 -19 -9 -9 -20 -20 -9 4 -12 -2 2 19 19 17 17 20 20 7 3 -5 -19 -20 -17 -0 -1 -11 -10 1 4 0 -12 -12 -2 2 1 1 1 3 8 10 11 6 -0 -2
-12 -4 -3 -14 -5 -20 -9 -16 -16 -15 -9 -0 10 13 15 12 7 -8 -11 -20 -20 -20 -0 -16 -19 -20 -20 -10 -14 -6 -0 -4 -5 3 8 8 9 10 9 6 -0 -1 -2 -1
-2 -3 -3 -4 -3 -18 -9 -3 -2 -11 2 7 8 10 7 1 -11 -17 -20 -20 0 1 -7 -17 -20 -20 -20 -20 -20 -20 -20 -20 -20 -18 -4 -2 -1 -0 -17 -17 -5 -2 0 1
-4 -20 -8 -18 -3 -6 -14 -4 -12 -12 5 7 5 -7 -18 -19 -17 -6 -20 -20 -5 -20 -20 -20 -20 -20 -20 -20 -20 -20 -20 -20 -20 -20 -18 -5 -5 -6 -6 -3 -2 -1 2 1
-3 -10 -8 -10 -19 -20 -9 1 -7 -8 -6 -12 -17 -13 -14 -12 -20 -20 -20 -20 -20 -20 -20 -20 -20 -20 -20 -20 -20 -20 -20 -20 -20 -20 -20 -20 -20 -20 -20 -17 -3 -1 0 1
0 1 -4 -11 -10 -8 -8 -11 -11 -14 -19 -20 -20 -20 -20 -20 -20 -20 -20 -20 -20 -20 -20 -20 -20 -20 -20 -20 -20 -20 -20 -20 -20 -20 -20 -20 -10 -15 -20 -14 -3 -14 -14 -18
-1 -0 0 3 4 4 -4 4 1 -5 -20 -20 -15 -20 -20 -19 -7 -20 -20 -20 -20 -20 -20 -20 -20 -20 -20 -20 -20 -20 -20 -20 -20 -20 -20 -19 -5 -19 -20 -20 -20 -2 -19 -20
3 2 2 -0 -6 -8 -8 -20 -20 -20 -20 -20 -20 -20 -20 -20 -15 -2 -18 -20 -20 -20 -20 -20 -20 -20 -5 -20 -20 -20 -20 -20 -20 -2 -2 -4 -2 -3 -2 -11 -20 -20 -20 -20
-3 -3 -0 -4 -19 -20 -20 -20 -20 -20 -20 -1 -0 3 3 -4 -20 -20 -20 -20 -20 -20 -20 -20 -20 -7 -13 -20 -16 -20 -12 -13 -8 -20 -12 -4 -11 -20 -20 -20 -20 -20 -20 -20
-17 -20 -20 -20 -20 -20 -20 -20 -8 -2 -5 1 1 1 0 -0 -20 -20 -20 -20 -20 -20 -20 -13 -3 -13 -16 -4 -3 -4 -2 -3 -20 -16 -3 -3 -6 -3 -20 -20 -20 -20 -20 -20

GFSNGP_prec_radar_075.txt.gz
Reflectivity
23 14 -1 -19 -19 -5 -19 -15 14 12 17 1 0 -7 6 -9 -20 -20 -18 0 -20 -20 -20 -20 -20 -20 -20 -20 -20 -20 -20 -20 -20 -20 -20 -20 -20 -20 -20 -20 -20 -20 -20 -20
-20 -20 -11 0 -20 -20 -20 -20 -20 -20 -20 -0 -20 -20 -20 -20 -20 -20 -20 -2 1 -5 -20 -20 -20 -20 -20 -20 -20 -20 -20 -20 -20 -20 -20 -20 -20 -20 -20 -20 -20 -20 -20 -20
-13 -20 -20 -19 1 -5 -17 -11 -20 -20 -3 -13 -20 -20 -20 -20 -20 -20 -20 -20 -20 -8 7 -5 -20 -20 -20 -20 -20 -20 -20 -20 -20 -20 -20 -20 -20 -20 -20 -20 -20 -20 -20 -20
-13 -20 -20 -20 -20 -16 -13 -20 -20 -17 2 -15 -20 -20 -20 -20 -20 -20 -20 -20 -20 -20 -20 -20 -20 -20 -20 -20 -20 -20 -20 -20 -20 -20 -20 -20 -20 -20 -20 -20 -20 -20 -20 -20
8 -19 -20 -20 -20 -20 -20 -20 -20 -19 -20 -20 -20 -20 -20 -20 -20 -20 -20 -20 -20 -20 -20 -20 -20 -20 -20 -20 -20 -20 -20 -20 -20 -20 -20 -20 -20 -20 -20 -20 -20 -18 1 1
7 4 -1 -20 -20 -20 -20 -20 -20 -20 -20 -20 -20 -20 -20 -20 -20 -20 -20 -20 -20 -20 -20 -20 -20 -20 -20 -20 -20 -20 -20 -20 -20 -20 -20 -20 -20 -20 -20 -20 -20 -20 -20 -20
4 9 -10 8 -18 -20 -1 7 2 -20 -20 -20 -20 -20 -20 -20 -20 -20 -20 -20 -20 -20 -20 -20 -20 -20 -20 -20 -20 -20 -20 -20 -20 -20 -11 -0 15 15 -20 -20 -20 -20 -20 -20
13 21 8 -20 -20 -7 11 -20 -20 -20 -20 -20 -20 -20 -20 -20 -20 -20 -20 -20 -20 -20 -20 -20 -20 -20 -20 -20 -20 -17 4 9 0 1 5 16 -14 -20 -20 -20 -20 0 -13 -1
-18 -18 -12 -20 -13 -17 -20 -20 -20 -20 -20 -20 -20 -20 -20 -20 -20 -20 -20 -20 -20 -20 -20 -20 -20 -9 1 -18 -20 -20 -19 6 9 -13 -10 1 -10 2 -20 4 15 13 15 9
27 -14 4 22 -18 -20 -20 -20 -20 -20 -20 -20 -20 -20 -20 -20 -20 -20 -20 -20 -20 -20 -20 -20 -20 -1 10 19 10 1 12 -4 -12 7 4 2 -11 -9 8 20 18 24 18 14
-20 -6 -4 1 -18 -20 -20 -20 -20 -20 -20 -20 -20 -20 -20 -20 -20 -20 -20 -20 -20 -20 -20 -20 -20 -18 21 21 20 24 17 24 27 16 15 10 16 21 31 25 21 32 26 42
-9 10 -20 11 -14 -20 -20 -20 -20 -20 -20 -20 -20 -20 -20 -20 -20 -20 -20 -20 -20 -20 -20 -15 11 -20 18 24 22 25 30 28 30 23 28 13 26 28 22 26 35 31 23 27
-19 -20 -20 -20 -20 -20 -20 -20 -20 -20 -20 -20 -20 -20 -20 -20 -20 -5 -20 -20 -20 -20 -20 -20 -14 19 16 39 39 34 22 15 27 28 23 27 32 27 -6 10 15 15 22 23
-20 -20 -20 -20 -20 -20 -20 -20 -20 -20 -20 -20 -20 -20 -20 -20 -20 -20 -16 -6 -8 -14 -20 -20 -19 -8 5 25 34 30 23 31 27 29 19 17 10 11 20 2 12 20 25 25
-20 -20 -20 -20 -20 -20 -20 -20 -20 -20 -20 -20 -20 -20 -19 -20 -19 -17 -5 18 19 29 22 11 9 10 0 -3 21 27 20 21 24 26 31 32 29 28 26 26 26 25 26 26
-20 -20 -20 -20 -20 -20 -20 -20 -20 -20 -20 -20 -20 -20 -17 -7 -2 14 23 22 20 12 13 -8 -11 3 1 2 -8 -4 24 15 17 23 24 21 22 22 21 20 20 17 18 18
-20 -20 -20 -11 -4 -20 -9 -20 -8 -5 -5 -20 -3 -2 -1 7 16 18 25 29 24 19 15 14 14 -8 -18 -1 8 14 13 12 9 14 7 10 14 19 19 18 17 17 19 16
-20 -20 -20 -2 -20 -16 -7 -8 -5 -3 -14 -3 -19 -13 -1 10 14 15 15 15 16 10 4 5 1 -16 -1 2 -15 -7 7 13 14 12 7 5 3 1 2 4 7 7 5 2
-15 -11 -11 -8 -1 -10 -2 -0 -4 -1 -2 -4 -19 -9 -0 -7 -2 12 13 10 3 -20 3 -10 -19 -20 -14 -6 -20 -12 -4 -4 -5 1 5 1 2 5 7 5 5 4 5 2
-2 -4 -0 0 1 -0 1 3 -1 -4 -0 -4 -7 -15 -18 -2 -0 -5 -19 -9 -4 -18 -20 -20 -20 -20 -20 -20 -20 -17 -5 -4 -20 -18 -4 0 -0 0 -20 -17 -4 -1 -1 -2
-1 -2 0 -3 -0 -0 1 -2 -17 -18 -4 -18 -15 -20 -20 -20 -20 -18 -20 -20 -20 -20 -20 -20 -20 -20 -20 -20 -20 -20 -20 -20 -20 -20 -6 -3 -4 -5 -3 -2 -1 1 0 1
2 -1 -0 -1 -2 -2 -1 -0 -5 -11 -8 -8 -1 4 2 -2 -20 -20 -20 -20 -20 -20 -20 -20 -20 -20 -20 -20 -20 -20 -20 -20 -20 -20 -12 -2 -1 -1 1 -0 1 1 1 1
2 -0 -1 -4 -6 -2 -11 -15 -2 -3 -7 -8 -13 -20 -20 -20 -20 -20 -20 -20 -20 -20 -20 -20 -20 -20 -20 -17 -7 -9 -20 -10 -4 -2 -2 -1 -0 -1 -1 -1 0 -1 -2 -3
5 4 2 4 3 -0 -3 4 1 -5 -20 -20 -20 -20 -20 -4 -20 -20 -20 -20 -20 -20 -20 -20 -20 -20 -20 -4 -3 -3 -2 1 1 1 -2 -6 2 -2 -1 -3 -3 -1 -1 -4
0 4 4 4 -1 -2 -3 -20 -20 -20 -20 -20 -20 -20 -20 -20 -13 -11 -9 -20 -20 -18 -17 -20 -20 -20 -3 -4 -5 -3 -3 -6 -13 -0 -0 -1 0 -1 1 -1 -2 -7 -4 -2
-4 -11 -5 -10 -18 -20 -20 -20 -20 -20 -20 -4 -2 1 0 -3 -13 -9 -12 -20 -20 -20 -3 -4 -20 -2 -2 -4 -1 -3 -0 -3 -0 -3 0 -0 -1 -1 -2 -5 -4 -3 -3 -4
-1 -20 -20 -20 -20 -20 -20 -20 -2 -3 -4 0 0 1 1 2 -1 -7 -15 1 0 -1 0 0 -1 -14 -16 -5 -1 -1 -1 0 -20 -20 -1 -0 -1 0 -1 -3 -3 -2 -4 -4

GFSNGP_prec_radar_078.txt.gz
Reflectivity
-20 -8 2 26 12 18 34 26 17 16 2 25 13 15 17 7 -20 -20 -20 -20 -20 -20 -20 -19 -19 -20 -20 -20 -20 -20 -20 -20 -20 -20 -20 -20 -20 -20 -20 -20 -20 -20 -20 -20
-20 -20 -20 4 19 20 1 25 25 -2 22 21 27 28 20 -20 -20 -20 -20 -2 -14 -16 -20 1 -20 -20 -19 -20 -20 -20 -20 -20 -20 -20 -20 -20 -20 -20 -20 -20 -20 -20 -20 -20
-20 -0 -5 -20 -18 -15 6 6 -4 -14 -5 -2 -19 -15 -6 -20 -20 -20 -20 -20 -20 -20 -11 -19 -20 -20 -20 -20 -20 -20 -20 -20 -20 -20 -20 -20 -20 -20 -20 -20 -20 -20 -20 -20
-10 -14 3 -20 -4 -20 -20 -20 -18 -2 8 18 -16 2 -20 -16 -20 -20 -17 -15 -20 -20 -20 -10 -3 -18 -20 -20 -20 -20 -20 -20 -20 -20 -20 -20 -20 -20 -20 -20 -20 -20 -20 -20
9 -19 -20 -9 -20 -20 -19 1 5 -13 -15 11 -20 -20 -12 -20 -20 -20 -15 -20 -20 -20 -20 -20 -20 -20 -20 -20 -20 -20 -20 -20 -12 -5 1 1 -20 -20 -20 -20 -20 -20 -20 -20
14 -19 -20 -20 -20 -20 -20 -18 -16 -20 -20 -20 -20 -17 -20 -20 -20 -20 -20 -20 -20 -20 -20 -20 -20 -20 -20 -20 -20 -20 -20 -20 -20 -20 -20 -20 -20 -20 -20 -20 -20 -20 -20 -20
6 12 -9 -20 -20 -20 1 0 -20 -17 -1 -20 -20 -18 -16 -20 -20 -20 -20 -20 -20 -20 -20 -20 -20 -20 -20 -20 -20 -20 -20 -20 -20 -20 -20 -20 -20 -20 -20 -16 -20 -20 -19 -16
2 13 2 -20 -18 20 24 -2 -12 -10 -17 -20 -20 -20 -20 -20 -20 -20 -20 -20 -20 -20 -20 -20 -20 -20 -20 -20 -20 -20 -20 -20 -20 -2 -20 -20 -20 -20 -20 8 -6 14 1 -5
-20 -20 -20 -20 -16 13 -20 16 1 -15 -20 -20 -20 -20 -20 -20 -20 -20 -20 -20 -20 -20 -20 -20 -20 -20 -20 -20 -20 -20 -20 -12 -17 -11 -15 27 -5 -15 -9 23 -20 -13 8 -8
20 -15 14 34 8 11 -17 -20 -20 -20 -20 -20 -20 -20 -20 -20 -20 -20 -20 -20 -20 -20 -20 -20 -20 -20 -20 -20 -20 -20 -19 6 4 -1 2 -4 20 21 9 -1 -4 22 18 20
15 32 27 9 19 30 -20 -20 -20 -20 -20 -20 -20 -20 -20 -20 -20 -20 -20 -20 -20 -20 -20 -20 -20 -20 -20 -20 -20 -20 -20 -6 13 9 19 9 16 8 11 17 22 30 21 26
26 33 33 33 31 10 -20 -20 -20 -20 -20 -20 -20 -20 -20 -20 -20 -20 -20 -20 -20 -20 -20 -20 -20 -20 -20 -20 -20 -20 -18 5 10 16 15 23 21 18 20 23 19 26 35 34
-19 1 -8 -20 -20 -20 -20 -20 -20 -20 -20 -20 -20 -20 -20 -20 -20 -20 -19 -20 -20 -20 -20 -20 -18 -19 -19 7 -7 -20 -12 15 20 23 29 22 28 27 20 17 17 20 24 29
-20 -18 -9 -20 -20 -20 -20 -20 -20 -20 -20 -20 -20 -20 -20 -20 -20 -20 -17 -19 -19 -18 -17 -16 -8 10 9 -13 -20 -20 -9 13 17 27 31 29 29 31 40 39 24 28 36 38
12 -5 -20 -20 -20 -20 -20 -20 -20 -20 -20 -20 -20 -20 -20 -20 -17 -15 -11 -19 -19 -20 -12 0 20 25 25 18 -20 -19 -11 -8 9 22 24 21 24 24 25 22 19 20 19 19
-8 -20 -20 -20 -20 -20 -20 -20 -20 -20 -20 -20 -17 -7 -8 -20 -8 -3 -15 -16 -17 1 12 20 21 18 16 -3 -2 -6 -8 -4 -6 12 21 24 25 23 20 20 20 20 18 21
-20 -20 -20 -20 -19 -20 -20 -20 -20 -20 -5 -19 1 -20 -19 -19 -9 -10 1 -16 -5 6 14 19 20 17 12 -13 -20 -19 -8 -20 -8 -5 -5 2 4 7 12 17 16 14 17 19
-20 -20 -20 -20 -7 -19 -20 -20 -6 -6 -1 1 -13 -20 -20 -20 -20 -20 -8 -13 -5 -5 7 13 12 8 5 -7 -18 -3 -16 -20 -20 -20 -10 -18 -10 -3 -3 -5 2 7 10 10
-20 -20 -16 -8 -20 -17 -5 -3 -0 1 1 -2 -20 -16 -18 -20 -20 -20 -20 -20 -20 -18 0 3 0 -7 -13 -20 -20 -9 -20 -19 -3 -8 -19 -20 -20 -11 -3 -8 -5 -2 -10 -7
-4 -18 -20 -17 -7 -6 -3 0 -15 -18 -4 -19 -20 -20 -20 -16 -1 -20 -20 -20 -15 -15 -20 -20 -20 -20 -20 -20 -20 -20 -19 -9 -14 -20 -20 -18 -12 -2 -9 -20 -6 -10 -20 -20
0 0 2 1 2 -4 -4 -10 -18 -20 -12 -20 -20 -20 -20 -20 -20 -20 -20 -20 -20 -20 -20 -20 -20 -20 -20 -20 -20 -20 -20 -20 -20 -7 -6 -9 -18 -20 -20 -20 -20 -20 -20 -20
0 -2 0 -3 -6 -2 -6 -13 -20 -20 -20 -20 -17 -8 -19 -20 -20 -20 -20 -20 -20 -20 -20 -20 -20 -20 -20 -18 -18 -20 -20 -20 -20 -20 -20 -20 -20 -20 -20 -20 -20 -20 -19 -20
2 -2 -3 -7 -16 -6 -15 -20 -5 -12 -14 -13 -20 -20 -20 -20 -20 -20 -20 -20 -20 -20 -20 -20 -20 -20 -20 -20 -14 0 -2 -5 -7 -14 -4 -15 -16 -12 -16 -20 -8 -19 -20 -20
0 -1 0 1 2 -4 -20 -1 -9 -20 -20 -20 -20 -20 -20 -20 -20 -20 -20 -20 -20 -20 -20 -20 -20 -20 -20 -1 1 -20 -20 -19 -1 -5 -5 -19 -1 -0 -20 -20 -20 -20 -15 -12
2 0 -6 -8 -17 -20 -20 -20 -20 -20 -20 -20 -20 -20 -20 -20 -20 -20 -20 -20 -20 -18 -18 -20 -20 -17 -5 -1 -20 -2 -2 -20 -20 -20 -4 -6 -4 -7 -20 -20 -18 -20 -20 -20
-1 -13 -20 -20 -13 -7 -20 -20 -20 -20 -20 -20 -16 1 0 -12 -15 -7 -20 -20 -20 -18 -1 -20 -20 -20 -11 -1 -0 -17 2 -20 -20 -20 -5 -5 -14 -10 -20 -20 -16 -20 -20 -20
-5 -16 -19 -20 -20 -20 -20 -20 -19 -7 -4 -4 -2 -0 -1 1 -20 -7 -20 1 1 1 3 3 -8 -20 -20 -20 -4 -3 -1 -3 -20 -20 -13 -7 -6 -20 -20 -20 -20 -20 -20 -20